Regional Weather Roundup
Issued by NWS

Home | Current Version | Previous Version | Graphics & Text | Print | Product List | Glossary On
Versions: 1 2 3 4 5 6 7 8 9 10 11 12 13 14 15 16 17 18 19 20 21 22 23 24 25 26 27 28 29 30 31 32 33 34 35 36 37 38 39 40 41 42 43 44 45 46 47 48 49 50
000
ASUS43 KFSD 172002
RWRSD

WEATHER ROUNDUP FOR SOUTH DAKOTA
NATIONAL WEATHER SERVICE SIOUX FALLS SD
300 PM CDT WED SEP 17 2014

NOTE: "FAIR" INDICATES FEW OR NO CLOUDS BELOW 12,000 FEET WITH NO
SIGNIFICANT WEATHER AND/OR OBSTRUCTIONS TO VISIBILITY.


SDZ001>005-009-010-012>017-172100-
NORTHWEST AND NORTH CENTRAL SOUTH DAKOTA

CITY           SKY/WX    TMP DP  RH WIND       PRES   REMARKS
FAITH            N/A     76  51  41 E10       29.94F
MOBRIDGE       PTSUNNY   76  48  37 VRB7      29.92F
$$

SDZ012>016-024>037-041>051-057-063-072>074-172100-
SOUTHWEST AND SOUTH CENTRAL SOUTH DAKOTA

CITY           SKY/WX    TMP DP  RH WIND       PRES   REMARKS
RAPID CTY ARPT MOSUNNY   76  49  38 S5        29.95F
PIERRE         SUNNY     80  51  36 E12G20    29.90F
CUSTER         MOSUNNY   75  42  30 VRB5      30.06F
ELLSWORTH AFB  MOSUNNY   78  48  35 S9        29.95F
PHILIP         SUNNY     81  54  39 SE13G18   29.91F
PINE RIDGE     SUNNY     83  50  31 E9        29.94F
WINNER         FAIR      80  52  37 E14       29.93S
$$

SDZ004>011-016>023-039-040-172100-
NORTHEAST SOUTH DAKOTA

CITY           SKY/WX    TMP DP  RH WIND       PRES   REMARKS
ABERDEEN       SUNNY     71  49  45 NE10      29.95F
WATERTOWN      MOSUNNY   72  52  49 MISG      29.95S
SISSETON         N/A     74  53  48 NE10      29.94S
$$

SDZ017-020-022-023-036>040-048>070-172100-
SOUTHEAST SOUTH DAKOTA

CITY           SKY/WX    TMP DP  RH WIND       PRES   REMARKS
SIOUX FALLS    PTSUNNY   77  56  48 E7        29.92S
HURON          SUNNY     78  49  35 N8        29.92S
CHAMBERLAIN    SUNNY     76  56  48 SE3       29.92F
MITCHELL       SUNNY     77  57  50 N7        29.93S
YANKTON        SUNNY     79  59  50 E8        29.90F
$$

ABBREVIATIONS USED IN REMARKS
   TC - TEMPERATURE IN CELSIUS
  WCI - WIND CHILL INDEX
   HX - HEAT INDEX
  VSB - VISIBILITY




USA.gov is the U.S. government's official web portal to all federal, state and local government web resources and services.